GW2497 Weather Reports


time (UTC)temp
C
wind
direction
speed
KPH
gust
KPH
rain 1hr
cm
rain 24hr
cm
rain mn
cm
humidity
%
barometer
mb
20260505214002 25 284 3.2 12.9 0.00 0.00 0.00 48 1015.3
20260505213504 25 52 0.0 12.9 0.00 0.00 0.00 51 1015.3
20260505213007 25 209 0.0 9.7 0.00 0.00 0.00 50 1015.3
20260505212502 25 248 1.6 9.7 0.00 0.00 0.00 49 1015.3
20260505212003 25 155 1.6 8.0 0.00 0.00 0.00 53 1015.4
20260505211507 25 13 1.6 6.4 0.00 0.00 0.00 54 1015.3
20260505211003 25 279 1.6 11.3 0.00 0.00 0.00 54 1015.2
20260505210502 25 97 1.6 11.3 0.00 0.00 0.00 53 1015.3
20260505210005 25 199 1.6 11.3 0.00 0.00 0.00 52 1015.3
20260505205506 25 43 1.6 9.7 0.00 0.00 0.00 53 1015.4
20260505205003 26 10 1.6 6.4 0.00 0.00 0.00 51 1015.2
20260505204503 25 169 3.2 8.0 0.00 0.00 0.00 52 1015.3
20260505204003 26 63 1.6 9.7 0.00 0.00 0.00 50 1015.3
20260505203502 26 186 3.2 9.7 0.00 0.00 0.00 51 1015.3
20260505203003 26 199 1.6 9.7 0.00 0.00 0.00 50 1015.3
20260505202503 26 256 3.2 9.7 0.00 0.00 0.00 51 1015.4
20260505202004 26 197 1.6 9.7 0.00 0.00 0.00 52 1015.4
20260505201503 26 360 1.6 11.3 0.00 0.00 0.00 52 1015.4
20260505201002 26 198 3.2 12.9 0.00 0.00 0.00 54 1015.4
20260505200503 26 295 1.6 8.0 0.00 0.00 0.00 52 1015.4
20260505200010 26 47 3.2 8.0 0.00 0.00 0.00 52 1015.6
20260505195502 26 17 1.6 11.3 0.00 0.00 0.00 51 1015.6
20260505195002 26 174 4.8 12.9 0.00 0.00 0.00 51 1015.5
20260505194502 26 44 3.2 12.9 0.00 0.00 0.00 52 1015.6
20260505194005 26 178 3.2 8.0 0.00 0.00 0.00 50 1015.6
20260505193503 26 275 1.6 11.3 0.00 0.00 0.00 50 1015.8
20260505193003 26 15 1.6 11.3 0.00 0.00 0.00 51 1015.9
20260505192502 26 327 3.2 11.3 0.00 0.00 0.00 51 1015.9
20260505192002 26 22 4.8 11.3 0.00 0.00 0.00 50 1015.9
20260505191508 26 355 1.6 9.7 0.00 0.00 0.00 50 1015.9
20260505191004 26 202 1.6 11.3 0.00 0.00 0.00 50 1016.0
20260505190505 26 53 3.2 11.3 0.00 0.00 0.00 51 1016.0
20260505190010 26 47 0.0 11.3 0.00 0.00 0.00 53 1016.2
20260505185502 26 167 1.6 8.0 0.00 0.00 0.00 53 1016.2
20260505185003 26 71 0.0 9.7 0.00 0.00 0.00 50 1016.1
20260505184504 26 9 3.2 9.7 0.00 0.00 0.00 50 1016.4
20260505184002 27 9 1.6 9.7 0.00 0.00 0.00 52 1016.4
20260505183504 27 13 3.2 9.7 0.00 0.00 0.00 50 1016.4
20260505183008 27 175 1.6 9.7 0.00 0.00 0.00 49 1016.3
20260505182503 27 224 1.6 9.7 0.00 0.00 0.00 50 1016.2
20260505182003 27 281 1.6 9.7 0.00 0.00 0.00 48 1016.3
20260505181502 27 186 1.6 12.9 0.00 0.00 0.00 51 1016.3
20260505181003 27 163 3.2 12.9 0.00 0.00 0.00 50 1016.4
20260505180503 27 30 3.2 11.3 0.00 0.00 0.00 49 1016.5
20260505180008 27 153 3.2 11.3 0.00 0.00 0.00 52 1016.6
20260505175502 27 20 3.2 9.7 0.00 0.00 0.00 49 1016.7
20260505175003 27 62 3.2 12.9 0.00 0.00 0.00 49 1016.6
20260505174506 27 117 1.6 12.9 0.00 0.00 0.00 51 1016.5
20260505174003 27 157 1.6 8.0 0.00 0.00 0.00 52 1016.6
20260505173503 27 296 0.0 6.4 0.00 0.00 0.00 54 1016.6
20260505173002 27 192 1.6 12.9 0.00 0.00 0.00 53 1016.7
20260505172502 27 163 3.2 12.9 0.00 0.00 0.00 55 1016.7
20260505172005 27 199 1.6 12.9 0.00 0.00 0.00 51 1016.7
20260505171505 27 155 4.8 9.7 0.00 0.00 0.00 53 1016.8
20260505171003 26 161 1.6 9.7 0.00 0.00 0.00 52 1016.8
20260505170502 27 84 3.2 9.7 0.00 0.00 0.00 52 1016.8
20260505170005 26 140 1.6 9.7 0.00 0.00 0.00 52 1016.8
20260505165502 26 188 1.6 9.7 0.00 0.00 0.00 54 1016.9
20260505165002 26 220 1.6 17.7 0.00 0.00 0.00 54 1016.9
20260505164502 26 207 1.6 4.8 0.00 0.00 0.00 52 1016.9
20260505164003 26 321 1.6 8.0 0.00 0.00 0.00 54 1016.9
20260505163502 26 30 3.2 11.3 0.00 0.00 0.00 53 1017.0
20260505163003 26 21 1.6 14.5 0.00 0.00 0.00 55 1017.1
20260505162502 26 149 3.2 14.5 0.00 0.00 0.00 54 1017.0
20260505162002 26 223 1.6 9.7 0.00 0.00 0.00 57 1016.9
20260505161503 26 201 3.2 9.7 0.00 0.00 0.00 53 1016.8
20260505161002 26 153 1.6 8.0 0.00 0.00 0.00 56 1016.8
20260505160502 26 197 1.6 12.9 0.00 0.00 0.00 56 1016.7
20260505153002 26 187 0.0 12.9 0.00 0.00 0.00 59 1016.9
20260505152502 25 177 3.2 12.9 0.00 0.00 0.00 58 1016.8
20260505152001 25 53 1.6 9.7 0.00 0.00 0.00 57 1016.9
20260505151501 25 174 4.8 9.7 0.00 0.00 0.00 58 1016.9
20260505151001 25 197 1.6 6.4 0.00 0.00 0.00 58 1016.9
20260505150501 25 60 1.6 6.4 0.00 0.00 0.00 57 1016.9
20260505140501 23 224 0.0 6.4 0.00 0.00 0.00 70 1016.6
20260505125001 17 269 0.0 1.6 0.00 0.00 0.00 99 1016.4
20260505124502 16 269 0.0 0.0 0.00 0.00 0.00 99 1016.4
20260505124001 16 269 0.0 0.0 0.00 0.00 0.00 99 1016.3
20260505123501 15 269 0.0 0.0 0.00 0.00 0.00 99 1016.3
20260505123001 15 269 0.0 0.0 0.00 0.00 0.00 99 1016.2
20260505122501 15 269 0.0 0.0 0.00 0.00 0.00 98 1016.3
20260505122001 14 269 0.0 0.0 0.00 0.00 0.00 98 1016.3
20260505121503 13 269 0.0 0.0 0.00 0.00 0.00 98 1016.1
20260505121001 13 269 0.0 0.0 0.00 0.00 0.00 98 1016.0
20260505120505 13 269 0.0 0.0 0.00 0.00 0.00 98 1016.1
20260505120004 12 269 0.0 0.0 0.00 0.00 0.00 98 1016.0
20260505115501 12 269 0.0 0.0 0.00 0.00 0.00 98 1016.1
20260505115001 12 269 0.0 0.0 0.00 0.00 0.00 98 1016.0
20260505114501 12 269 0.0 0.0 0.00 0.00 0.00 98 1016.0
20260505114004 12 269 0.0 0.0 0.00 0.00 0.00 98 1016.0
20260505113501 12 269 0.0 0.0 0.00 0.00 0.00 97 1016.0
20260505113005 11 269 0.0 0.0 0.00 0.00 0.00 97 1015.9
20260505112501 11 269 0.0 0.0 0.00 0.00 0.00 97 1015.8
20260505112003 11 269 0.0 0.0 0.00 0.00 0.00 97 1015.6
20260505111501 11 269 0.0 0.0 0.00 0.00 0.00 97 1015.6
20260505111001 11 269 0.0 0.0 0.00 0.00 0.00 97 1015.5
20260505110503 11 269 0.0 0.0 0.00 0.00 0.00 97 1015.5
20260505102001 11 269 0.0 0.0 0.00 0.00 0.00 96 1015.2
20260505101501 11 269 0.0 0.0 0.00 0.00 0.00 96 1015.2
20260505101001 11 269 0.0 0.0 0.00 0.00 0.00 96 1015.3
20260505100501 11 269 0.0 0.0 0.00 0.00 0.00 96 1015.4
20260505100004 11 269 0.0 0.0 0.00 0.00 0.00 96 1015.2
20260505095501 11 269 0.0 0.0 0.00 0.00 0.00 96 1015.2
20260505095001 11 269 0.0 0.0 0.00 0.00 0.00 96 1015.1
20260505094501 11 269 0.0 0.0 0.00 0.00 0.00 96 1015.0
20260505094002 11 269 0.0 0.0 0.00 0.00 0.00 96 1015.0
20260505093501 11 269 0.0 0.0 0.00 0.00 0.00 96 1015.1
20260505093001 11 269 0.0 0.0 0.00 0.00 0.00 96 1015.0
20260505092500 11 269 0.0 0.0 0.00 0.00 0.00 96 1014.9
20260505092001 12 269 0.0 0.0 0.00 0.00 0.00 96 1014.9
20260505091501 12 269 0.0 0.0 0.00 0.00 0.00 96 1014.8
20260505091004 12 269 0.0 0.0 0.00 0.00 0.00 96 1014.9
20260505090501 12 269 0.0 0.0 0.00 0.00 0.00 96 1014.9
20260505090108 12 269 0.0 0.0 0.00 0.00 0.00 96 1015.0
20260505041504 14 269 0.0 0.0 0.00 0.00 0.00 93 1016.2
20260505041004 14 269 0.0 0.0 0.00 0.00 0.00 93 1016.2
20260505040504 14 269 0.0 0.0 0.00 0.00 0.00 93 1016.3
20260505040008 14 269 0.0 0.0 0.00 0.00 0.00 93 1016.2
20260505035508 14 269 0.0 0.0 0.00 0.00 0.00 93 1016.3
20260505035004 14 269 0.0 0.0 0.00 0.00 0.00 93 1016.3
20260505034504 14 269 0.0 0.0 0.00 0.00 0.00 93 1016.3
20260505034005 14 269 0.0 0.0 0.00 0.00 0.00 92 1016.2
20260505033504 14 269 0.0 0.0 0.00 0.00 0.00 92 1016.4
20260505033010 15 269 0.0 0.0 0.00 0.00 0.00 92 1016.5
20260505032507 15 269 0.0 0.0 0.00 0.00 0.00 92 1016.4
20260505032005 15 269 0.0 0.0 0.00 0.00 0.00 92 1016.5
20260505031504 15 269 0.0 0.0 0.00 0.00 0.00 92 1016.5
20260505031007 15 269 0.0 0.0 0.00 0.00 0.00 91 1016.5
20260505030504 15 269 0.0 0.0 0.00 0.00 0.00 91 1016.6
20260505030006 15 269 0.0 0.0 0.00 0.00 0.00 91 1016.6
20260505025504 15 269 0.0 0.0 0.00 0.00 0.00 91 1016.6
20260505025005 15 269 0.0 0.0 0.00 0.00 0.00 91 1016.6
20260505024504 15 269 0.0 0.0 0.00 0.00 0.00 90 1016.5
20260505024006 15 269 0.0 0.0 0.00 0.00 0.00 90 1016.5
20260505023503 15 269 0.0 0.0 0.00 0.00 0.00 90 1016.6
20260505023004 15 269 0.0 0.0 0.00 0.00 0.00 90 1016.7
20260505022504 15 269 0.0 0.0 0.00 0.00 0.00 90 1016.7
20260505022004 15 269 0.0 0.0 0.00 0.00 0.00 89 1016.6
20260505021503 15 269 0.0 0.0 0.00 0.00 0.00 89 1016.5
20260505021003 16 269 0.0 0.0 0.00 0.00 0.00 89 1016.5
20260505020503 16 269 0.0 0.0 0.00 0.00 0.00 88 1016.7
20260505020006 16 269 0.0 0.0 0.00 0.00 0.00 88 1016.7
20260505015504 16 269 0.0 0.0 0.00 0.00 0.00 88 1016.7
20260505015004 16 269 0.0 0.0 0.00 0.00 0.00 87 1016.6
20260505014508 16 269 0.0 0.0 0.00 0.00 0.00 87 1016.5
20260505014003 16 269 0.0 0.0 0.00 0.00 0.00 86 1016.4
20260505013503 16 269 0.0 0.0 0.00 0.00 0.00 86 1016.5
20260505013003 16 269 0.0 0.0 0.00 0.00 0.00 85 1016.4
20260505012504 17 269 0.0 0.0 0.00 0.00 0.00 84 1016.4
20260505012004 17 269 0.0 0.0 0.00 0.00 0.00 84 1016.2
20260505011505 17 269 0.0 0.0 0.00 0.00 0.00 83 1016.2
20260505011003 17 269 0.0 0.0 0.00 0.00 0.00 82 1016.2
20260505010503 17 269 0.0 0.0 0.00 0.00 0.00 82 1016.2
20260505010005 17 269 0.0 0.0 0.00 0.00 0.00 81 1016.2
20260505005504 17 269 0.0 0.0 0.00 0.00 0.00 80 1016.1
20260505005004 18 269 0.0 0.0 0.00 0.00 0.00 79 1016.2
20260505004511 18 269 0.0 0.0 0.00 0.00 0.00 79 1016.1
20260505004003 18 269 0.0 0.0 0.00 0.00 0.00 78 1016.1
20260505003505 18 269 0.0 0.0 0.00 0.00 0.00 75 1016.0
20260505003002 19 269 0.0 0.0 0.00 0.00 0.00 74 1016.1
20260505002503 19 269 0.0 0.0 0.00 0.00 0.00 72 1016.0
20260505002003 20 269 0.0 0.0 0.00 0.00 0.00 71 1016.0
20260505001503 20 269 0.0 0.0 0.00 0.00 0.00 70 1015.9
20260505001002 20 269 0.0 0.0 0.00 0.00 0.00 69 1015.7
20260505000502 21 269 0.0 8.0 0.00 0.00 0.00 68 1015.5
20260505000006 21 269 0.0 8.0 0.00 0.00 0.00 66 1015.5
20260504235503 21 179 0.0 4.8 0.00 0.00 0.00 66 1015.5
20260504235003 21 81 0.0 4.8 0.00 0.00 0.00 66 1015.4
20260504234502 21 191 0.0 8.0 0.00 0.00 0.00 65 1015.2
20260504234002 21 193 0.0 8.0 0.00 0.00 0.00 64 1015.2
20260504233502 21 223 0.0 8.0 0.00 0.00 0.00 64 1015.2
20260504233003 21 256 1.6 8.0 0.00 0.00 0.00 64 1015.1
20260504232503 21 351 1.6 6.4 0.00 0.00 0.00 63 1015.2
20260504232002 22 215 0.0 3.2 0.00 0.00 0.00 63 1015.1
20260504231511 22 24 0.0 8.0 0.00 0.00 0.00 62 1015.2
20260504231002 22 186 1.6 8.0 0.00 0.00 0.00 61 1015.2
20260504230502 22 166 1.6 9.7 0.00 0.00 0.00 62 1015.1
20260504230005 22 200 1.6 9.7 0.00 0.00 0.00 62 1015.2
20260504225507 22 190 0.0 8.0 0.00 0.00 0.00 62 1015.2
20260504225003 22 194 3.2 8.0 0.00 0.00 0.00 61 1015.3
20260504224502 22 11 0.0 4.8 0.00 0.00 0.00 62 1015.4
20260504224002 22 169 0.0 9.7 0.00 0.00 0.00 61 1015.4
20260504223502 22 242 1.6 16.1 0.00 0.00 0.00 62 1015.5
20260504223003 22 209 1.6 6.4 0.00 0.00 0.00 61 1015.6
20260504222505 22 201 1.6 11.3 0.00 0.00 0.00 59 1015.7
20260504222002 23 360 3.2 11.3 0.00 0.00 0.00 60 1015.5
20260504221502 23 141 3.2 11.3 0.00 0.00 0.00 61 1015.5
20260504221003 23 123 1.6 11.3 0.00 0.00 0.00 60 1015.5
20260504220503 23 143 1.6 9.7 0.00 0.00 0.00 61 1015.4
20260504220005 23 173 0.0 9.7 0.00 0.00 0.00 61 1015.2
20260504215503 23 207 3.2 14.5 0.00 0.00 0.00 60 1015.5
20260504215005 23 188 4.8 14.5 0.00 0.00 0.00 59 1015.3
20260504214504 23 177 3.2 11.3 0.00 0.00 0.00 61 1015.4